Regional Weather Roundup
Issued by NWS

Home | Current Version | Previous Version | Graphics & Text | Print | Product List | Glossary On
Versions: 1 2 3 4 5 6 7 8 9 10 11 12 13 14 15 16 17 18 19 20 21 22 23 24 25 26 27 28 29 30 31 32 33 34 35 36 37 38 39 40 41 42 43 44 45 46 47 48 49 50
000
ASUS43 KOAX 252302
RWRNE

WEATHER ROUNDUP FOR NEBRASKA
NATIONAL WEATHER SERVICE OMAHA NE
600 PM CDT WED APR 25 2018

NOTES: SATELLITE DATA IS BEING USED TO AUGMENT CLOUD COVER ABOVE
       12000 FEET.
       "FAIR" INDICATES FEW OR NO CLOUDS BELOW 12,000 FEET WITH NO
       SIGNIFICANT WEATHER AND/OR OBSTRUCTIONS TO VISIBILITY.


NEZ001>004-019>022-054>056-260000-
NEBRASKA PANHANDLE

CITY           SKY/WX    TMP DP  RH WIND       PRES   REMARKS
SCOTTSBLUFF    SUNNY     70  24  17 SE8       29.99F
ALLIANCE       SUNNY     66  21  18 SW13      30.01F
CHADRON        SUNNY     71  19  14 S14       29.94F
GORDON         FAIR      67  25  20 SW14      29.98F
KIMBALL        SUNNY     66  22  18 SW6       30.05F
SIDNEY         SUNNY     66  23  19 SW9       30.05F
$$

NEZ057>060-069>072-079>082-260000-
SOUTHWEST NEBRASKA

CITY           SKY/WX    TMP DP  RH WIND       PRES   REMARKS
NORTH PLATTE   SUNNY     63  31  30 SW8       30.07F
IMPERIAL       SUNNY     62  29  28 CALM      30.08F
LEXINGTON      SUNNY     61  30  31 N5        30.09F
MCCOOK         SUNNY     62  33  33 NW7       30.09F
OGALLALA       SUNNY     63  31  30 SW6       30.06F
$$

NEZ005>010-023>029-035>040-094-260000-
NORTH CENTRAL NEBRASKA

CITY           SKY/WX    TMP DP  RH WIND       PRES   REMARKS
VALENTINE      PTSUNNY   66  22  18 S14G21    30.00F
AINSWORTH      MOSUNNY   61  24  24 S9        30.03F
BROKEN BOW     SUNNY     59  30  33 S5        30.07F
O`NEILL        SUNNY     62  27  26 S6        30.06F
ORD            SUNNY     60  26  27 N3        30.07F
THEDFORD       SUNNY     64  23  21 SW8       30.04F
$$

NEZ041-046>049-061>064-073>077-083>087-260000-
SOUTH CENTRAL NEBRASKA

CITY           SKY/WX    TMP DP  RH WIND       PRES   REMARKS
GRAND ISLAND   SUNNY     59  29  31 N5        30.10F
AURORA         SUNNY     57  29  33 CALM      30.09F
HASTINGS       SUNNY     57  32  38 CALM      30.10F
HEBRON         MOSUNNY   55  38  52 N3        30.12F
HOLDREGE       SUNNY     57  32  38 NW6       30.10F
KEARNEY        SUNNY     58  31  35 NW7       30.11F
YORK             N/A     57  36  44 CALM      30.10F
$$

NEZ011>018-030>034-042>045-260000-
NORTHEAST NEBRASKA

CITY           SKY/WX    TMP DP  RH WIND       PRES   REMARKS
NORFOLK        SUNNY     59  30  33 NW6       30.07F
ALBION         SUNNY     59  26  27 NW3       30.08F
BLAIR          SUNNY     61  33  34 CALM      30.06F
COLUMBUS       SUNNY     60  31  33 W3        30.09F
FREMONT        SUNNY     62  31  30 W5        30.08F
TEKAMAH        SUNNY     63  31  30 VRB6      30.06F
WAYNE          SUNNY     60  29  30 CALM      30.07F
$$

NEZ050>053-065>068-078-088>093-260000-
SOUTHEAST NEBRASKA

CITY           SKY/WX    TMP DP  RH WIND       PRES   REMARKS
LINCOLN        SUNNY     58  31  35 CALM      30.11F
OMAHA EPPLEY   MOSUNNY   64  32  30 NW5       30.06F
BEATRICE       CLOUDY    55  39  55 CALM      30.11F
FALLS CITY     CLOUDY    54  37  52 N9        30.09F
NEBRASKA CITY  MOSUNNY   53  42  67 NW6       30.09F
PLATTSMOUTH    MOSUNNY   58  36  45 SW6       30.08F
$$

NEZ044-045-051>053-067-260000-
OMAHA AREA

CITY           SKY/WX    TMP DP  RH WIND       PRES   REMARKS
OMAHA EPPLEY   MOSUNNY   64  32  30 NW5       30.06F
BLAIR          SUNNY     61  33  34 CALM      30.06F
FREMONT        SUNNY     62  31  30 W5        30.08F
MILLARD        SUNNY     62  35  36 NW8       30.07F
PLATTSMOUTH    MOSUNNY   58  36  45 SW6       30.08F
WAHOO          FAIR      61  28  28 CALM      30.08F
$$



USA.gov is the U.S. government's official web portal to all federal, state and local government web resources and services.